TimeCST,TemperatureF,Dew PointF,Humidity,Sea Level PressureIn,VisibilityMPH,Wind Direction,Wind SpeedMPH,Gust SpeedMPH,PrecipitationIn,Events,Conditions,WindDirDegrees,DateUTC
2:15 AM,23.0,23.0,100,29.88,10.0,WNW,5.8,-,N/A,,Clear,290,2012-12-19 08:15:00
2:55 AM,21.2,21.2,100,29.89,10.0,West,5.8,-,N/A,,Clear,280,2012-12-19 08:55:00
5:20 AM,21.2,21.2,100,29.90,10.0,NW,4.6,-,N/A,,Clear,320,2012-12-19 11:20:00
6:45 AM,19.4,19.4,100,29.94,10.0,WSW,6.9,-,N/A,,Scattered Clouds,250,2012-12-19 12:45:00
7:21 AM,21.2,21.2,100,29.97,5.0,WSW,8.1,-,N/A,,Mostly Cloudy,250,2012-12-19 13:21:00
7:45 AM,21.2,21.2,100,29.97,5.0,West,6.9,-,N/A,,Mostly Cloudy,260,2012-12-19 13:45:00
8:45 AM,24.8,24.8,100,29.99,5.0,Variable,3.5,-,N/A,,Overcast,0,2012-12-19 14:45:00
9:45 AM,26.6,26.6,100,30.01,5.0,WSW,5.8,-,N/A,,Overcast,240,2012-12-19 15:45:00
10:45 AM,28.4,28.4,100,30.02,5.0,SW,4.6,-,N/A,,Overcast,230,2012-12-19 16:45:00
11:45 AM,30.2,28.4,93,30.00,10.0,SW,3.5,-,N/A,,Overcast,230,2012-12-19 17:45:00
12:45 PM,30.2,28.4,93,30.00,10.0,WSW,4.6,-,N/A,,Overcast,250,2012-12-19 18:45:00
1:45 PM,30.2,28.4,93,30.00,10.0,West,3.5,-,N/A,,Overcast,270,2012-12-19 19:45:00
2:45 PM,32.0,26.6,80,30.03,10.0,WSW,6.9,-,N/A,,Overcast,240,2012-12-19 20:45:00
3:45 PM,30.2,26.6,86,30.03,10.0,SW,4.6,-,N/A,,Overcast,220,2012-12-19 21:45:00
4:45 PM,30.2,26.6,86,30.06,10.0,SW,5.8,-,N/A,,Overcast,230,2012-12-19 22:45:00
5:45 PM,30.2,26.6,86,30.05,10.0,Variable,4.6,-,N/A,,Overcast,0,2012-12-19 23:45:00
6:45 PM,30.2,26.6,86,30.03,10.0,Variable,3.5,-,N/A,,Overcast,0,2012-12-20 00:45:00
7:45 PM,30.2,26.6,86,30.03,10.0,Calm,Calm,-,N/A,,Overcast,0,2012-12-20 01:45:00
8:45 PM,30.2,26.6,86,30.03,10.0,Calm,Calm,-,N/A,,Overcast,0,2012-12-20 02:45:00
9:45 PM,30.2,26.6,86,30.00,10.0,ENE,6.9,-,N/A,,Overcast,70,2012-12-20 03:45:00
10:45 PM,30.2,26.6,86,29.99,10.0,East,6.9,-,N/A,,Overcast,80,2012-12-20 04:45:00
11:15 PM,30.2,28.4,93,29.98,10.0,East,3.5,-,N/A,,Overcast,90,2012-12-20 05:15:00
11:55 PM,30.2,28.4,93,29.95,5.0,ENE,6.9,-,N/A,Snow,Light Snow,70,2012-12-20 05:55:00